Home > Weather > Manado > Past weeks

Flag for Indonesia Weather for the Past 2 Weeks in Manado, North Sulawesi, Indonesia

Now
81 °F

Light rain. Partly sunny.


Feels Like: 87 °F
Forecast: 77 / 85 °F
Wind: 2 mph from North

Location: Menado / Dr. Sam Ratulangi

Current Time: Feb 9, 2016 at 9:45:51 AM

Latest Report: Feb 9, 2016 at 9:00 AM


Visibility: 2 mi

Pressure: 29.89 "Hg

Humidity: 89%

Dew point: 77 °F

Location of ManadoLocation

Historic Weather in Manado — Graph

°F

Manado Temperature Yesterday

Maximum temperature yesterday: 91 °F (at 11:30 AM)
Minimum temperature yesterday: 75 °F (at 12:30 AM)
Average temperature yesterday: 81 °F

High & Low Weather Summary for the Past Weeks

 TemperatureHumidityPressure
High140 °F (Jan 27, 6:00 PM)100% (Jan 25, 9:00 PM)29.98 "Hg (Jan 25, 9:00 PM)
Low70 °F (Jan 27, 6:00 AM)3% (Jan 27, 6:00 PM)29.53 "Hg (Feb 2, 12:30 PM)
Average80 °F84%29.85 "Hg
* Reported Jan 25 8:00 AM — Feb 9 8:30 AM, Manado, Weather by CustomWeather, © 2016

Note: Actual official high and low records may vary slightly from our data, if they occured in-between our weather recording intervals... More about our weather records

Advertising

Manado Weather History for the Previous 24 Hours

 ConditionsComfort  
Time TempWeatherWind HumidityBarometerVisibility
8:30 AM
Tue, Feb 9
77 °FLight rain. Partly sunny.1 mph100%29.89 "Hg1 mi
8:00 AM77 °FLight rain. Partly sunny.3 mph94%29.89 "Hg2 mi
7:30 AM77 °FLight rain. Partly sunny.3 mph94%29.89 "Hg1 mi
7:00 AM77 °FLight rain. Scattered clouds.2 mph94%29.89 "Hg1 mi
6:30 AM75 °FLight rain. Scattered clouds.1 mph100%29.86 "Hg1 mi
6:00 AM77 °FScattered clouds.2 mph89%29.86 "Hg5 mi
5:30 AM79 °FPassing clouds.1 mph84%29.83 "Hg6 mi
5:00 AM79 °FPassing clouds.3 mph84%29.83 "Hg5 mi
4:00 AM79 °FPassing clouds.2 mph89%29.80 "Hg5 mi
3:30 AM79 °FPassing clouds.3 mph89%29.80 "Hg5 mi
3:00 AM79 °FPassing clouds.2 mph89%29.80 "Hg5 mi
2:30 AM79 °FPassing clouds.2 mph89%29.83 "Hg4 mi
2:00 AM77 °FPassing clouds.2 mph94%29.83 "Hg4 mi
1:30 AM77 °FPassing clouds.2 mph89%29.83 "Hg6 mi
1:00 AM77 °FPassing clouds.3 mph89%29.83 "Hg6 mi
12:30 AM79 °FPassing clouds.3 mph84%29.86 "Hg6 mi
12:00 AM77 °FPassing clouds.2 mph89%29.86 "Hg6 mi
11:30 PM
Mon, Feb 8
77 °FPassing clouds.3 mph89%29.86 "Hg6 mi
11:00 PM77 °FPassing clouds.2 mph89%29.86 "Hg6 mi
10:30 PM77 °FPassing clouds.2 mph89%29.86 "Hg6 mi
10:00 PM77 °FPassing clouds.1 mph89%29.86 "Hg6 mi
9:30 PM77 °FPassing clouds.1 mph89%29.86 "Hg6 mi
9:00 PM77 °FPassing clouds.1 mph89%29.86 "Hg6 mi
8:30 PM77 °FPassing clouds.2 mph89%29.86 "Hg6 mi
8:00 PM77 °FPassing clouds.2 mph89%29.86 "Hg6 mi
7:30 PM79 °FPassing clouds.1 mph79%29.86 "Hg6 mi
7:00 PM79 °FPassing clouds.2 mph84%29.83 "Hg6 mi
6:00 PM81 °FPassing clouds.3 mph74%29.83 "HgN/A
5:30 PM82 °FPassing clouds.3 mph70%29.80 "HgN/A
5:00 PM84 °FScattered clouds.5 mph66%29.80 "HgN/A
4:30 PM86 °FScattered clouds.6 mph66%29.80 "HgN/A
4:00 PM86 °FScattered clouds.7 mph66%29.77 "HgN/A
3:30 PM88 °FScattered clouds.5 mph62%29.80 "HgN/A
2:30 PM90 °FScattered clouds.5 mph59%29.80 "HgN/A
2:00 PM90 °FScattered clouds.7 mph59%29.80 "HgN/A
1:30 PM91 °FScattered clouds.9 mph56%29.80 "HgN/A
1:00 PM91 °FScattered clouds.8 mph52%29.83 "HgN/A
12:30 PM88 °FScattered clouds.8 mph62%29.83 "HgN/A
12:00 PM90 °FScattered clouds.9 mph55%29.83 "HgN/A
11:30 AM91 °FScattered clouds.8 mph52%29.86 "HgN/A
11:00 AM90 °FScattered clouds.7 mph52%29.86 "HgN/A
10:30 AM88 °FScattered clouds.7 mph62%29.86 "HgN/A
10:00 AM88 °FScattered clouds.7 mph66%29.89 "HgN/A
9:30 AM88 °FScattered clouds.5 mph62%29.89 "HgN/A
9:00 AM88 °FScattered clouds.6 mph62%29.89 "HgN/A
Weather by CustomWeather, © 2016

See weather overviewHow to use our weather pages